Aviation Digital Data Service (ADDS)

Output produced by METARs form (0057 UTC 22 September 2017)
found at http://www.aviationweather.gov/adds/metars/
 
WAAA 220030Z VRB02KT 9000 FEW020 30/23 Q1010 NOSIG
TAF WAAA 212300Z 2200/2306 19004KT 9999 FEW020 
     BECMG 2201/2203 29009G19KT 
     PROB40 
     TEMPO 2206/2210 6000 -RA SCT018 
     BECMG 2211/2213 12005KT 8000 
     BECMG 2301/2303 30008KT 9999
       
WABB 212200Z 32004KT 9999 SCT018 25/25 Q1012 NOSIG
TAF WABB 212300Z 2200/2306 33006KT 9999 SCT018 
     TEMPO 2200/2204 6000 RA FEW017CB 
     BECMG 2210/2212 00000KT
       
WADD 220030Z VRB01KT 9999 FEW017 27/23 Q1013 NOSIG
TAF WADD 212300Z 2200/2300 VRB05KT 9999 SCT017 
     BECMG 2202/2204 12010KT
       
WADL 220100Z 14004KT 100V160 9000 SCT016 27/23 Q1014 NOSIG
TAF WADL 212300Z 2200/2224 16010KT 9000 SCT016
       
WAHQ 212300Z 18004KT 5000 HZ FEW015 23/22 Q1012 NOSIG
WAHS 220030Z 10003KT 5000 HZ FEW015 27/20 Q1011 NOSIG
WAJJ 220030Z 12006KT 9999 FEW013 30/22 Q1011 NOSIG
WALL 220030Z 00000KT 6000 -RA FEW016CB BKN016 25/25 Q1011 RMK CB TO E
TAF WALL 212300Z 2200/2306 24006KT 9999 FEW017CB SCT018 
     TEMPO 2200/2203 6000 -TSRA FEW015CB BKN016 
     BECMG 2206/2208 SCT018
       
WAMM 220030Z VRB02KT 9999 FEW021 27/25 Q1012 TEMPO -RA
TAF WAMM 212300Z 2200/2306 35008KT 9999 SCT022 
     TEMPO 2204/2208 6000 -TSRA FEW017CB SCT018 
     BECMG 2210/2212 05002KT FEW022 
     BECMG 2300/2302 34008KT SCT022
       
WAOO 220030Z VRB02KT 5000 FEW020 27/24 Q1011
TAF WAOO 212300Z 2200/2224 15006KT 9999 SCT020 
     TEMPO 2204/2206 7000 RA 
     BECMG 2213/2215 00000KT
       
TAF WAPI 212300Z 2200/2212 11012KT 9999 FEW020 SCT100
       
WAPP 220030Z 06005KT 020V110 9999 SCT018 29/23 Q1012 NOSIG
TAF WAPP 212300Z 2200/2224 34008KT 9999 SCT018
       
WAQQ 220000Z 00000KT 9000 FEW015 BKN100 24/23 Q1010
TAF WAQQ 212300Z 2200/2212 00000KT 9000 -RA FEW015 
     BECMG 2200/2202 9999 NSW
       
WARR 212200Z 28006KT 5000 HZ FEW020 23/20 Q1010 NOSIG
TAF WARR 212300Z 2200/2300 11012KT 9999 FEW020 
     BECMG 2218/2220 26005KT 5000 HZ
       
WATT 220030Z 09008KT 9999 FEW020 31/18 Q1013 NOSIG
TAF WATT 212300Z 2200/2224 12008KT 9999 FEW020 
     TEMPO 2201/2204 30008KT 
     TEMPO 2205/2209 12008G18KT
       
WIBB 220030Z 00000KT 5000 HZ FEW010 25/24 Q1009
TAF WIBB 212300Z 2200/2224 00000KT 5000 BR FEW020 
     BECMG 2101/2103 18005KT 9000 SCT015
       
WIDD 220030Z 17004KT 9999 FEW014 27/25 Q1012 NOSIG
TAF WIDD 212300Z 2200/2224 18006KT 9999 FEW014 
     TEMPO 2106/2108 5000 -RA SCT014
       
WIEE 212200Z 02002KT 9999 SCT020 23/22 Q1009
TAF WIEE 212300Z 2200/2224 01003KT 9999 FEW020 
     BECMG 2201/2203 27005KT
       
WIHH 220030Z 21007KT 5000 HZ NSC 27/21 Q1011 NOSIG
TAF WIHH 212300Z 2200/2300 12005KT 5000 HZ FEW022 
     BECMG 2203/2205 03012KT 7000 SCT020 
     TEMPO 2209/2211 34010KT 5000
       
WIII 220030Z 22007KT 6000 FEW020 27/22 Q1011 NOSIG
TAF WIII 212300Z 2200/2306 20005KT 6000 FEW020 
     BECMG 2203/2205 03010KT 8000 
     BECMG 2212/2214 06005KT 5000 HZ
       
WIMM 220030Z 18005KT 6000 FEW020 25/24 Q1009
TAF WIMM 212300Z 2200/2300 20005KT 3000 BR SCT018 
     BECMG 2203/2205 VRB10KT 9999 NSW 
     TEMPO 2210/2214 4000 RA FEW016CB SCT017
       
WIOO 220030Z 13004KT 9999 FEW014 26/24 Q1011 NOSIG
WIPP 220030Z 15005KT 6000 FEW012 BKN100 26/23 Q1011
TAF WIPP 212300Z 2200/2224 14008KT 9999 SCT012 
     TEMPO 2221/2224 3000 BR
       
TAF WITT 212300Z 2200/2224 25010KT 9999 SCT018 
     PROB40 
     TEMPO 2210/2214 4000 RA FEW016CB SCT017 
     BECMG 2216/2218 00000KT
       
WAAA 220030Z VRB02KT 9000 FEW020 30/23 Q1010 NOSIG
TAF WAAA 212300Z 2200/2306 19004KT 9999 FEW020 
     BECMG 2201/2203 29009G19KT 
     PROB40 
     TEMPO 2206/2210 6000 -RA SCT018 
     BECMG 2211/2213 12005KT 8000 
     BECMG 2301/2303 30008KT 9999
       
WABB 212200Z 32004KT 9999 SCT018 25/25 Q1012 NOSIG
TAF WABB 212300Z 2200/2306 33006KT 9999 SCT018 
     TEMPO 2200/2204 6000 RA FEW017CB 
     BECMG 2210/2212 00000KT
       
WADD 220030Z VRB01KT 9999 FEW017 27/23 Q1013 NOSIG
TAF WADD 212300Z 2200/2300 VRB05KT 9999 SCT017 
     BECMG 2202/2204 12010KT
       
WADL 220100Z 14004KT 100V160 9000 SCT016 27/23 Q1014 NOSIG
TAF WADL 212300Z 2200/2224 16010KT 9000 SCT016
       
WAHQ 212300Z 18004KT 5000 HZ FEW015 23/22 Q1012 NOSIG
WAHS 220030Z 10003KT 5000 HZ FEW015 27/20 Q1011 NOSIG
WAJJ 220030Z 12006KT 9999 FEW013 30/22 Q1011 NOSIG
WALL 220030Z 00000KT 6000 -RA FEW016CB BKN016 25/25 Q1011 RMK CB TO E
TAF WALL 212300Z 2200/2306 24006KT 9999 FEW017CB SCT018 
     TEMPO 2200/2203 6000 -TSRA FEW015CB BKN016 
     BECMG 2206/2208 SCT018
       
WAMM 220030Z VRB02KT 9999 FEW021 27/25 Q1012 TEMPO -RA
TAF WAMM 212300Z 2200/2306 35008KT 9999 SCT022 
     TEMPO 2204/2208 6000 -TSRA FEW017CB SCT018 
     BECMG 2210/2212 05002KT FEW022 
     BECMG 2300/2302 34008KT SCT022
       
WAOO 220030Z VRB02KT 5000 FEW020 27/24 Q1011
TAF WAOO 212300Z 2200/2224 15006KT 9999 SCT020 
     TEMPO 2204/2206 7000 RA 
     BECMG 2213/2215 00000KT
       
TAF WAPI 212300Z 2200/2212 11012KT 9999 FEW020 SCT100
       
WAPP 220030Z 06005KT 020V110 9999 SCT018 29/23 Q1012 NOSIG
TAF WAPP 212300Z 2200/2224 34008KT 9999 SCT018
       
WAQQ 220000Z 00000KT 9000 FEW015 BKN100 24/23 Q1010
TAF WAQQ 212300Z 2200/2212 00000KT 9000 -RA FEW015 
     BECMG 2200/2202 9999 NSW
       
WARR 212200Z 28006KT 5000 HZ FEW020 23/20 Q1010 NOSIG
TAF WARR 212300Z 2200/2300 11012KT 9999 FEW020 
     BECMG 2218/2220 26005KT 5000 HZ
       
WATT 220030Z 09008KT 9999 FEW020 31/18 Q1013 NOSIG
TAF WATT 212300Z 2200/2224 12008KT 9999 FEW020 
     TEMPO 2201/2204 30008KT 
     TEMPO 2205/2209 12008G18KT
       
WABB 212200Z 32004KT 9999 SCT018 25/25 Q1012 NOSIG
TAF WABB 212300Z 2200/2306 33006KT 9999 SCT018 
     TEMPO 2200/2204 6000 RA FEW017CB 
     BECMG 2210/2212 00000KT
       
WAAA 220030Z VRB02KT 9000 FEW020 30/23 Q1010 NOSIG
TAF WAAA 212300Z 2200/2306 19004KT 9999 FEW020 
     BECMG 2201/2203 29009G19KT 
     PROB40 
     TEMPO 2206/2210 6000 -RA SCT018 
     BECMG 2211/2213 12005KT 8000 
     BECMG 2301/2303 30008KT 9999
       
WAAA 220030Z VRB02KT 9000 FEW020 30/23 Q1010 NOSIG
TAF WAAA 212300Z 2200/2306 19004KT 9999 FEW020 
     BECMG 2201/2203 29009G19KT 
     PROB40 
     TEMPO 2206/2210 6000 -RA SCT018 
     BECMG 2211/2213 12005KT 8000 
     BECMG 2301/2303 30008KT 9999
       
WABB 212200Z 32004KT 9999 SCT018 25/25 Q1012 NOSIG
TAF WABB 212300Z 2200/2306 33006KT 9999 SCT018 
     TEMPO 2200/2204 6000 RA FEW017CB 
     BECMG 2210/2212 00000KT
       
WADD 220030Z VRB01KT 9999 FEW017 27/23 Q1013 NOSIG
TAF WADD 212300Z 2200/2300 VRB05KT 9999 SCT017 
     BECMG 2202/2204 12010KT
       
WADL 220100Z 14004KT 100V160 9000 SCT016 27/23 Q1014 NOSIG
TAF WADL 212300Z 2200/2224 16010KT 9000 SCT016
       
WAHQ 212300Z 18004KT 5000 HZ FEW015 23/22 Q1012 NOSIG
WAHS 220030Z 10003KT 5000 HZ FEW015 27/20 Q1011 NOSIG
WAJJ 220030Z 12006KT 9999 FEW013 30/22 Q1011 NOSIG
WALL 220030Z 00000KT 6000 -RA FEW016CB BKN016 25/25 Q1011 RMK CB TO E
TAF WALL 212300Z 2200/2306 24006KT 9999 FEW017CB SCT018 
     TEMPO 2200/2203 6000 -TSRA FEW015CB BKN016 
     BECMG 2206/2208 SCT018
       
WAMM 220030Z VRB02KT 9999 FEW021 27/25 Q1012 TEMPO -RA
TAF WAMM 212300Z 2200/2306 35008KT 9999 SCT022 
     TEMPO 2204/2208 6000 -TSRA FEW017CB SCT018 
     BECMG 2210/2212 05002KT FEW022 
     BECMG 2300/2302 34008KT SCT022
       
WAOO 220030Z VRB02KT 5000 FEW020 27/24 Q1011
TAF WAOO 212300Z 2200/2224 15006KT 9999 SCT020 
     TEMPO 2204/2206 7000 RA 
     BECMG 2213/2215 00000KT
       
TAF WAPI 212300Z 2200/2212 11012KT 9999 FEW020 SCT100
       
WAPP 220030Z 06005KT 020V110 9999 SCT018 29/23 Q1012 NOSIG
TAF WAPP 212300Z 2200/2224 34008KT 9999 SCT018
       
WAQQ 220000Z 00000KT 9000 FEW015 BKN100 24/23 Q1010
TAF WAQQ 212300Z 2200/2212 00000KT 9000 -RA FEW015 
     BECMG 2200/2202 9999 NSW
       
WARR 212200Z 28006KT 5000 HZ FEW020 23/20 Q1010 NOSIG
TAF WARR 212300Z 2200/2300 11012KT 9999 FEW020 
     BECMG 2218/2220 26005KT 5000 HZ
       
WATT 220030Z 09008KT 9999 FEW020 31/18 Q1013 NOSIG
TAF WATT 212300Z 2200/2224 12008KT 9999 FEW020 
     TEMPO 2201/2204 30008KT 
     TEMPO 2205/2209 12008G18KT
       
WIBB 220030Z 00000KT 5000 HZ FEW010 25/24 Q1009
TAF WIBB 212300Z 2200/2224 00000KT 5000 BR FEW020 
     BECMG 2101/2103 18005KT 9000 SCT015
       
WIDD 220030Z 17004KT 9999 FEW014 27/25 Q1012 NOSIG
TAF WIDD 212300Z 2200/2224 18006KT 9999 FEW014 
     TEMPO 2106/2108 5000 -RA SCT014
       
WIEE 212200Z 02002KT 9999 SCT020 23/22 Q1009
TAF WIEE 212300Z 2200/2224 01003KT 9999 FEW020 
     BECMG 2201/2203 27005KT
       
WIHH 220030Z 21007KT 5000 HZ NSC 27/21 Q1011 NOSIG
TAF WIHH 212300Z 2200/2300 12005KT 5000 HZ FEW022 
     BECMG 2203/2205 03012KT 7000 SCT020 
     TEMPO 2209/2211 34010KT 5000
       
WIII 220030Z 22007KT 6000 FEW020 27/22 Q1011 NOSIG
TAF WIII 212300Z 2200/2306 20005KT 6000 FEW020 
     BECMG 2203/2205 03010KT 8000 
     BECMG 2212/2214 06005KT 5000 HZ
       
WIMM 220030Z 18005KT 6000 FEW020 25/24 Q1009
TAF WIMM 212300Z 2200/2300 20005KT 3000 BR SCT018 
     BECMG 2203/2205 VRB10KT 9999 NSW 
     TEMPO 2210/2214 4000 RA FEW016CB SCT017
       
WIOO 220030Z 13004KT 9999 FEW014 26/24 Q1011 NOSIG
WIPP 220030Z 15005KT 6000 FEW012 BKN100 26/23 Q1011
TAF WIPP 212300Z 2200/2224 14008KT 9999 SCT012 
     TEMPO 2221/2224 3000 BR
       
TAF WITT 212300Z 2200/2224 25010KT 9999 SCT018 
     PROB40 
     TEMPO 2210/2214 4000 RA FEW016CB SCT017 
     BECMG 2216/2218 00000KT
       
WAPP 220030Z 06005KT 020V110 9999 SCT018 29/23 Q1012 NOSIG
TAF WAPP 212300Z 2200/2224 34008KT 9999 SCT018
       
TAF WIBD 212300Z 2200/2224 00000KT 7000 SCT013 
     BECMG 2203/2205 20007KT 9999
       
WIMM 220030Z 18005KT 6000 FEW020 25/24 Q1009
TAF WIMM 212300Z 2200/2300 20005KT 3000 BR SCT018 
     BECMG 2203/2205 VRB10KT 9999 NSW 
     TEMPO 2210/2214 4000 RA FEW016CB SCT017
       
WIBB 220030Z 00000KT 5000 HZ FEW010 25/24 Q1009
TAF WIBB 212300Z 2200/2224 00000KT 5000 BR FEW020 
     BECMG 2101/2103 18005KT 9000 SCT015
       
WIDD 220030Z 17004KT 9999 FEW014 27/25 Q1012 NOSIG
TAF WIDD 212300Z 2200/2224 18006KT 9999 FEW014 
     TEMPO 2106/2108 5000 -RA SCT014
       
WIEE 212200Z 02002KT 9999 SCT020 23/22 Q1009
TAF WIEE 212300Z 2200/2224 01003KT 9999 FEW020 
     BECMG 2201/2203 27005KT
       
WIHH 220030Z 21007KT 5000 HZ NSC 27/21 Q1011 NOSIG
TAF WIHH 212300Z 2200/2300 12005KT 5000 HZ FEW022 
     BECMG 2203/2205 03012KT 7000 SCT020 
     TEMPO 2209/2211 34010KT 5000
       
WIII 220030Z 22007KT 6000 FEW020 27/22 Q1011 NOSIG
TAF WIII 212300Z 2200/2306 20005KT 6000 FEW020 
     BECMG 2203/2205 03010KT 8000 
     BECMG 2212/2214 06005KT 5000 HZ
       
WIMM 220030Z 18005KT 6000 FEW020 25/24 Q1009
TAF WIMM 212300Z 2200/2300 20005KT 3000 BR SCT018 
     BECMG 2203/2205 VRB10KT 9999 NSW 
     TEMPO 2210/2214 4000 RA FEW016CB SCT017
       
WIOO 220030Z 13004KT 9999 FEW014 26/24 Q1011 NOSIG
WIPP 220030Z 15005KT 6000 FEW012 BKN100 26/23 Q1011
TAF WIPP 212300Z 2200/2224 14008KT 9999 SCT012 
     TEMPO 2221/2224 3000 BR
       
TAF WITT 212300Z 2200/2224 25010KT 9999 SCT018 
     PROB40 
     TEMPO 2210/2214 4000 RA FEW016CB SCT017 
     BECMG 2216/2218 00000KT
       
WAMM 220030Z VRB02KT 9999 FEW021 27/25 Q1012 TEMPO -RA
TAF WAMM 212300Z 2200/2306 35008KT 9999 SCT022 
     TEMPO 2204/2208 6000 -TSRA FEW017CB SCT018 
     BECMG 2210/2212 05002KT FEW022 
     BECMG 2300/2302 34008KT SCT022
       
WAJJ 220030Z 12006KT 9999 FEW013 30/22 Q1011 NOSIG
WIII 220030Z 22007KT 6000 FEW020 27/22 Q1011 NOSIG
TAF WIII 212300Z 2200/2306 20005KT 6000 FEW020 
     BECMG 2203/2205 03010KT 8000 
     BECMG 2212/2214 06005KT 5000 HZ
       
TAF WITT 212300Z 2200/2224 25010KT 9999 SCT018 
     PROB40 
     TEMPO 2210/2214 4000 RA FEW016CB SCT017 
     BECMG 2216/2218 00000KT
       
WIPP 220030Z 15005KT 6000 FEW012 BKN100 26/23 Q1011
TAF WIPP 212300Z 2200/2224 14008KT 9999 SCT012 
     TEMPO 2221/2224 3000 BR
       
WIBB 220030Z 00000KT 5000 HZ FEW010 25/24 Q1009
TAF WIBB 212300Z 2200/2224 00000KT 5000 BR FEW020 
     BECMG 2101/2103 18005KT 9000 SCT015
       
WIOO 220030Z 13004KT 9999 FEW014 26/24 Q1011 NOSIG